Regional Weather Roundup
Issued by NWS

Home | Current Version | Previous Version | Graphics & Text | Print | Product List | Glossary Off
Versions: 1 2 3 4 5 6 7 8 9 10 11 12 13 14 15 16 17 18 19 20 21 22 23 24 25 26 27 28 29 30 31 32 33 34 35 36 37 38 39 40 41 42 43 44 45 46 47 48 49 50

295
ASUS43 KTOP 280659
RWRKS

WEATHER ROUNDUP FOR KANSAS
NATIONAL WEATHER SERVICE GOODLAND KS
200 AM CDT SUN MAY 28 2017

NOTE:  "FAIR" INDICATES FEW OR NO CLOUDS BELOW 12,000 FEET WITH NO
SIGNIFICANT WEATHER AND/OR OBSTRUCTIONS TO VISIBILITY.

KSZ001>006-013>018-027>032-041>047-280800-
NORTHWEST KANSAS

CITY           SKY/WX    TMP DP  RH WIND       PRES   REMARKS
GOODLAND       CLEAR     48  45  89 W9        30.14F
HAYS           PTCLDY    59  53  80 NW8       30.04S
HILL CITY      CLEAR     54  51  90 NW7       30.05F
RUSSELL        PTCLDY    59  56  89 NW9       30.01R
$$

KSZ061>065-074>080-084>089-280800-
SOUTHWEST KANSAS

CITY           SKY/WX    TMP DP  RH WIND       PRES   REMARKS
DODGE CITY     CLOUDY    55  51  86 NW13      30.03F
ELKHART          N/A     52  38  59 MISG        N/A
GARDEN CITY    PTCLDY    53  49  86 NW15      30.07F
GREAT BEND     CLOUDY    60  57  89 NW5       30.05R
LIBERAL        CLOUDY    55  50  83 NW13      30.09R
$$

KSZ066>073-081>083-090>101-280800-
SOUTHEAST KANSAS

CITY           SKY/WX    TMP DP  RH WIND       PRES   REMARKS
CHANUTE        CLOUDY    66  61  84 NW9       29.90R
COFFEYVILLE    CLOUDY    66  62  87 NW8       29.89R
HUTCHINSON     CLOUDY    63  56  78 NW9       30.00R
MEDICINE LODGE   N/A     65  54  67 N14       29.94F
NEWTON         PTCLDY    62  60  93 NW7       29.98F
PARSONS        CLOUDY    62  59  90 W3        29.91R
WICHITA INTL   MOCLDY    65  62  90 NW5       29.96F
WICHITA JABRA  PTCLDY    64  61  90 NW5       29.96F
WINFIELD       CLOUDY    67  61  81 NW6       29.98S
$$

KSZ007>012-019>026-033>040-048>060-102>105-280800-
NORTHEAST KANSAS

CITY           SKY/WX    TMP DP  RH WIND       PRES   REMARKS
CONCORDIA      CLOUDY    60  55  83 NW5       30.00R
EMPORIA        PTCLDY    62  60  93 NW7       29.92F
LAWRENCE       CLOUDY    61  60  97 NW8       29.90R
MANHATTAN      MOCLDY    60  58  92 CALM      29.96S
OLATHE IND     CLOUDY    63  60  90 NW8       29.89S
OLATHE EXE     CLOUDY    63  62  97 NW9       29.88S
SALINA         CLOUDY    63  57  81 NW6       30.00R
TOPEKA BILLARD CLOUDY    62  60  93 NW8       29.91S
TOPEKA FORBES  MOCLDY    63  60  90 N12       29.90F
$$




USA.gov is the U.S. government's official web portal to all federal, state and local government web resources and services.